Location: Newark
(41.1192°N, 81.5292°W)
Time: 21:32:48
(UTC+00:00)

N. Korean satellite - Pass Details

Date: 21 November 2019
Orbit: 456 x 506 km, 97.2° (Epoch: 09 December)

Event Time Altitude Azimuth Distance (km) Brightness Sun altitude
Rises 11:34:11 0° 7° (N) 2,610 10.2 -8.9°
Reaches altitude 10° 11:36:19 10° 3° (N) 1,716 9.2 -8.5°
Maximum altitude 11:39:56 56° 285° (WNW) 593 6.7 -7.9°
Drops below altitude 10° 11:43:29 10° 206° (SSW) 1,678 9.2 -7.3°
Sets 11:45:33 0° 202° (SSW) 2,546 10.2 -6.9°
